TimeMDT,TemperatureF,Dew PointF,Humidity,Sea Level PressureIn,VisibilityMPH,Wind Direction,Wind SpeedMPH,Gust SpeedMPH,PrecipitationIn,Events,Conditions,WindDirDegrees,DateUTC
12:56 AM,69.1,48.9,49,29.91,-9999.0,SW,5.8,-,N/A,,Unknown,230,2013-08-23 06:56:00
1:56 AM,72.0,60.1,66,29.93,-9999.0,NW,9.2,-,N/A,,Unknown,310,2013-08-23 07:56:00
2:56 AM,69.1,55.0,61,29.93,-9999.0,NNW,8.1,-,N/A,,Unknown,340,2013-08-23 08:56:00
3:56 AM,66.0,55.0,68,29.94,-9999.0,WNW,3.5,-,N/A,,Unknown,290,2013-08-23 09:56:00
4:56 AM,63.0,55.0,75,29.96,-9999.0,WSW,4.6,-,N/A,,Unknown,240,2013-08-23 10:56:00
5:56 AM,62.1,55.9,80,29.96,-9999.0,West,5.8,-,N/A,,Unknown,270,2013-08-23 11:56:00
6:56 AM,64.0,57.0,78,29.96,-9999.0,West,5.8,-,N/A,,Unknown,280,2013-08-23 12:56:00
7:56 AM,72.0,57.9,61,29.96,-9999.0,West,6.9,-,N/A,,Unknown,270,2013-08-23 13:56:00
8:56 AM,78.1,55.0,45,29.94,-9999.0,Variable,3.5,-,N/A,,Unknown,0,2013-08-23 14:56:00
9:56 AM,81.0,55.0,41,29.94,-9999.0,South,6.9,-,N/A,,Unknown,170,2013-08-23 15:56:00
10:56 AM,84.0,55.9,38,29.94,-9999.0,South,8.1,-,N/A,,Unknown,190,2013-08-23 16:56:00
11:56 AM,87.1,54.0,32,29.92,-9999.0,SSW,10.4,19.6,N/A,,Unknown,210,2013-08-23 17:56:00
12:56 PM,89.1,55.0,31,29.90,-9999.0,SSE,15.0,-,N/A,,Unknown,160,2013-08-23 18:56:00
1:56 PM,91.0,51.1,25,29.87,-9999.0,SSW,18.4,24.2,N/A,,Unknown,200,2013-08-23 19:56:00
2:56 PM,91.9,46.9,21,29.85,-9999.0,SSW,13.8,24.2,N/A,,Unknown,200,2013-08-23 20:56:00
3:56 PM,91.9,45.0,20,29.84,-9999.0,South,15.0,21.9,N/A,,Unknown,190,2013-08-23 21:56:00
4:56 PM,91.0,45.0,20,29.83,-9999.0,South,12.7,19.6,N/A,,Unknown,190,2013-08-23 22:56:00
5:56 PM,89.1,46.9,23,29.83,-9999.0,South,15.0,-,N/A,,Unknown,190,2013-08-23 23:56:00
6:56 PM,84.9,46.9,27,29.83,-9999.0,South,11.5,-,N/A,,Unknown,190,2013-08-24 00:56:00
7:56 PM,75.9,48.0,37,29.86,-9999.0,South,9.2,-,N/A,,Unknown,170,2013-08-24 01:56:00
8:56 PM,75.0,50.0,41,29.86,-9999.0,SSE,10.4,-,N/A,,Unknown,160,2013-08-24 02:56:00
9:56 PM,73.0,48.9,42,29.88,-9999.0,South,10.4,-,N/A,,Unknown,170,2013-08-24 03:56:00
10:56 PM,73.0,52.0,48,29.87,-9999.0,South,11.5,-,N/A,,Unknown,180,2013-08-24 04:56:00
11:56 PM,72.0,54.0,53,29.87,-9999.0,South,10.4,-,N/A,,Unknown,180,2013-08-24 05:56:00